Temp
-7 -6 -6 -6 -7 -7 -6 -5 -6 -6 -6 -6 -6 -5 -5 -5 -5 -5 -5 -5 -5 -5 -5 -5 -5 -5 -5 -5 -5 -5 -5 -5 -5 -5 -6 -5 -6 -6 -6 -3 -6 -3 -5
-7 -6 -6 -5 -8 -7 -6 -6 -6 -6 -6 -6 -6 -6 -6 -5 -5 -5 -5 -5 -5 -5 -5 -5 -5 -4 -5 -5 -5 -5 -6 -5 -5 -5 -5 -5 -5 -6 -6 -6 -6 -4 -6
-7 -7 -7 -7 -8 -7 -7 -7 -6 -6 -6 -6 -6 -6 -6 -6 -6 -6 -5 -5 -5 -5 -5 -5 -5 -5 -5 -5 -5 -5 -5 -5 -5 -5 -5 -5 -6 -6 -6 -6 -5 -6 -6
-7 -7 -7 -7 -8 -7 -7 -6 -6 -6 -6 -6 -6 -6 -6 -6 -6 -6 -5 -5 -5 -5 -5 -5 -5 -5 -5 -5 -5 -5 -5 -4 -5 -5 -5 -5 -5 -6 -5 -6 -6 -5 -6
-7 -7 -7 -7 -7 -7 -7 -7 -6 -6 -6 -6 -7 -7 -6 -6 -6 -5 -5 -5 -5 -5 -5 -5 -5 -5 -5 -5 -5 -5 -5 -5 -5 -5 -5 -5 -5 -5 -5 -5 -5 -6 -5
-8 -8 -8 -8 -7 -7 -7 -7 -7 -7 -7 -7 -7 -7 -6 -6 -6 -6 -6 -6 -6 -6 -6 -6 -6 -6 -6 -6 -6 -6 -5 -5 -6 -5 -5 -5 -5 -5 -5 -6 -5 -6 -5
-7 -7 -7 -8 -8 -7 -7 -7 -7 -7 -7 -7 -7 -7 -6 -6 -6 -6 -6 -6 -7 -7 -7 -7 -7 -7 -6 -7 -6 -6 -6 -6 -6 -6 -6 -6 -6 -5 -6 -5 -6 -6 -5
-8 -8 -8 -8 -8 -8 -7 -7 -7 -7 -7 -7 -7 -7 -7 -6 -7 -7 -7 -7 -8 -8 -8 -8 -8 -8 -8 -8 -7 -7 -7 -7 -7 -7 -6 -6 -6 -6 -6 -7 -6 -7 -6
-8 -8 -8 -8 -8 -8 -8 -7 -7 -7 -7 -7 -7 -7 -7 -7 -8 -8 -8 -8 -7 -8 -8 -8 -8 -8 -8 -8 -9 -8 -8 -8 -7 -7 -8 -7 -7 -6 -6 -7 -7 -6 -7
-9 -8 -8 -9 -10 -8 -7 -8 -8 -8 -8 -8 -8 -8 -8 -8 -8 -8 -8 -8 -8 -8 -8 -8 -8 -8 -9 -8 -8 -9 -9 -9 -8 -8 -8 -9 -8 -8 -7 -7 -7 -7 -7
-8 -8 -8 -9 -8 -8 -8 -8 -8 -8 -8 -8 -8 -9 -8 -8 -8 -8 -8 -8 -8 -8 -8 -8 -9 -9 -9 -9 -9 -9 -9 -9 -9 -9 -9 -9 -9 -9 -8 -8 -8 -8 -8
-7 -8 -8 -9 -9 -9 -9 -9 -8 -8 -8 -9 -9 -9 -8 -8 -8 -8 -8 -8 -8 -8 -9 -9 -9 -10 -10 -10 -10 -10 -9 -9 -9 -9 -9 -9 -10 -9 -9 -9 -8 -8 -8
-8 -8 -8 -8 -8 -8 -8 -8 -8 -9 -9 -9 -8 -8 -8 -8 -8 -8 -8 -8 -8 -8 -8 -9 -9 -10 -10 -10 -10 -10 -10 -10 -9 -10 -10 -10 -10 -10 -9 -9 -9 -9 -8
-8 -8 -8 -8 -8 -8 -9 -9 -9 -9 -9 -9 -9 -9 -9 -9 -9 -9 -9 -9 -9 -9 -9 -9 -9 -9 -10 -10 -11 -10 -10 -10 -10 -10 -10 -10 -10 -10 -9 -10 -10 -9 -9
-9 -9 -9 -9 -9 -9 -10 -10 -9 -9 -9 -9 -9 -9 -9 -10 -10 -9 -10 -10 -10 -10 -10 -10 -10 -10 -10 -10 -10 -11 -11 -10 -10 -10 -10 -10 -10 -10 -10 -9 -10 -10 -10
-10 -10 -10 -10 -10 -10 -10 -10 -10 -10 -10 -10 -10 -10 -10 -10 -11 -11 -11 -11 -11 -11 -11 -11 -11 -11 -11 -11 -11 -12 -12 -11 -11 -10 -10 -10 -10 -10 -10 -10 -9 -9 -9
-10 -10 -11 -11 -10 -10 -10 -10 -10 -10 -11 -11 -11 -11 -11 -12 -11 -12 -12 -12 -12 -12 -12 -12 -12 -12 -12 -13 -13 -13 -13 -12 -12 -11 -11 -10 -10 -10 -10 -10 -10 -10 -10
-11 -11 -11 -11 -11 -11 -11 -11 -11 -11 -11 -11 -12 -12 -12 -13 -13 -13 -14 -14 -14 -13 -13 -12 -12 -12 -12 -12 -12 -13 -13 -13 -13 -12 -12 -11 -10 -10 -10 -10 -10 -10 -10
-12 -12 -11 -11 -11 -11 -12 -12 -12 -12 -12 -12 -12 -13 -14 -13 -14 -14 -14 -14 -14 -14 -14 -13 -13 -12 -12 -12 -12 -12 -13 -14 -14 -14 -13 -12 -11 -11 -10 -10 -10 -10 -10
-12 -12 -12 -12 -12 -12 -12 -12 -13 -13 -13 -14 -14 -15 -15 -15 -15 -14 -14 -15 -14 -14 -14 -14 -13 -13 -13 -13 -14 -13 -13 -13 -14 -14 -14 -13 -12 -11 -11 -11 -10 -10 -10
-11 -12 -12 -12 -13 -13 -13 -13 -14 -14 -14 -15 -15 -15 -15 -15 -15 -15 -15 -15 -15 -15 -15 -16 -16 -14 -14 -14 -14 -15 -14 -14 -14 -14 -14 -14 -13 -12 -11 -11 -11 -10 -10
-12 -13 -13 -14 -14 -14 -14 -14 -14 -15 -15 -15 -15 -15 -15 -16 -16 -16 -16 -16 -16 -16 -17 -16 -16 -15 -14 -14 -14 -14 -15 -15 -14 -14 -14 -14 -14 -13 -12 -11 -11 -11 -10
-13 -13 -14 -14 -14 -14 -14 -15 -15 -15 -16 -16 -15 -16 -16 -16 -16 -16 -16 -17 -17 -17 -17 -16 -15 -15 -14 -14 -14 -14 -15 -15 -15 -15 -15 -14 -14 -14 -13 -13 -12 -11 -11
-14 -14 -15 -14 -14 -15 -15 -15 -16 -16 -16 -16 -16 -16 -16 -17 -17 -17 -17 -17 -18 -18 -17 -16 -15 -15 -15 -14 -14 -15 -15 -15 -15 -15 -15 -15 -14 -14 -14 -13 -13 -12 -11
-14 -15 -15 -15 -15 -15 -16 -16 -16 -16 -16 -16 -16 -16 -17 -17 -17 -17 -17 -18 -18 -18 -17 -16 -16 -15 -15 -15 -14 -14 -15 -15 -15 -15 -15 -14 -14 -14 -14 -14 -13 -13 -13
-15 -15 -15 -16 -16 -16 -16 -16 -16 -16 -17 -17 -17 -17 -17 -17 -17 -17 -18 -18 -18 -19 -18 -16 -15 -15 -15 -14 -14 -14 -14 -14 -14 -14 -14 -14 -14 -14 -14 -14 -14 -13 -13
Height
5892 5890 5888 5886 5886 5885 5884 5883 5882 5882 5880 5879 5877 5876 5874 5874 5872 5871 5868 5866 5863 5860 5858 5856 5854 5852 5849 5847 5846 5844 5843 5843 5842 5839 5845 5846 5845 5844 5840 5835 5853 5843 5857
5889 5886 5883 5878 5879 5880 5880 5879 5879 5877 5875 5874 5874 5873 5872 5870 5867 5866 5864 5863 5860 5858 5855 5853 5850 5848 5846 5843 5841 5839 5838 5838 5834 5836 5821 5838 5838 5837 5837 5841 5841 5817 5848
5887 5884 5880 5877 5875 5875 5876 5875 5874 5873 5872 5871 5870 5869 5867 5866 5863 5863 5861 5859 5856 5853 5851 5848 5846 5844 5842 5840 5839 5837 5835 5834 5833 5832 5832 5832 5831 5832 5831 5832 5834 5835 5839
5885 5882 5878 5876 5875 5874 5873 5872 5870 5870 5869 5867 5866 5864 5864 5863 5860 5858 5855 5852 5850 5848 5845 5843 5840 5838 5835 5835 5833 5832 5830 5829 5827 5825 5824 5823 5824 5823 5824 5825 5827 5827 5832
5883 5881 5878 5876 5873 5871 5869 5866 5865 5864 5861 5860 5859 5858 5857 5856 5853 5851 5848 5846 5843 5840 5837 5835 5832 5830 5829 5828 5826 5824 5823 5821 5820 5818 5817 5817 5815 5815 5815 5817 5819 5820 5821
5878 5876 5874 5872 5870 5869 5866 5863 5860 5858 5856 5855 5853 5851 5849 5846 5844 5841 5839 5837 5834 5832 5829 5826 5823 5821 5819 5818 5818 5816 5813 5813 5812 5810 5810 5808 5806 5806 5805 5808 5808 5809 5811
5871 5869 5868 5865 5864 5862 5861 5859 5857 5853 5850 5848 5845 5842 5839 5836 5834 5830 5828 5825 5822 5819 5816 5815 5813 5811 5809 5807 5806 5805 5803 5802 5801 5800 5801 5798 5799 5798 5797 5799 5799 5799 5801
5861 5860 5858 5856 5856 5855 5853 5851 5849 5846 5843 5839 5836 5834 5830 5826 5824 5821 5816 5813 5812 5809 5806 5803 5801 5799 5798 5796 5794 5793 5792 5790 5789 5789 5790 5789 5789 5788 5789 5789 5790 5790 5789
5854 5852 5848 5846 5846 5847 5847 5843 5840 5837 5834 5830 5826 5824 5821 5819 5815 5813 5810 5805 5804 5801 5796 5792 5789 5787 5786 5785 5783 5780 5779 5778 5778 5777 5779 5778 5778 5777 5778 5779 5780 5780 5780
5838 5837 5838 5838 5835 5837 5838 5834 5831 5829 5827 5823 5818 5815 5813 5812 5809 5806 5802 5799 5795 5791 5787 5783 5779 5777 5774 5772 5771 5769 5768 5766 5766 5765 5766 5767 5767 5766 5766 5767 5767 5769 5771
5845 5839 5838 5834 5832 5831 5829 5826 5824 5821 5819 5815 5811 5807 5804 5802 5800 5796 5794 5789 5785 5781 5777 5773 5768 5764 5762 5760 5758 5757 5754 5754 5753 5752 5752 5754 5754 5755 5755 5755 5755 5757 5759
5838 5836 5831 5827 5825 5822 5821 5817 5815 5813 5810 5806 5802 5798 5795 5791 5789 5785 5781 5776 5771 5768 5764 5759 5755 5751 5748 5746 5745 5744 5742 5741 5742 5740 5740 5741 5741 5743 5744 5744 5745 5745 5747
5828 5826 5822 5820 5818 5815 5812 5809 5807 5805 5801 5798 5794 5790 5786 5782 5778 5773 5767 5762 5758 5755 5752 5748 5744 5741 5738 5734 5731 5729 5728 5728 5728 5727 5726 5727 5727 5728 5729 5732 5735 5734 5735
5824 5821 5818 5815 5813 5810 5807 5803 5800 5798 5793 5789 5783 5779 5774 5770 5766 5762 5758 5752 5747 5741 5737 5733 5729 5725 5722 5720 5719 5716 5713 5712 5713 5712 5712 5713 5714 5714 5717 5718 5720 5722 5724
5817 5813 5810 5809 5806 5803 5800 5796 5793 5789 5784 5777 5772 5769 5764 5759 5754 5750 5745 5741 5735 5729 5724 5718 5713 5708 5703 5699 5698 5698 5697 5697 5696 5695 5697 5699 5700 5700 5702 5705 5707 5709 5712
5810 5807 5803 5800 5797 5794 5791 5789 5784 5778 5774 5766 5762 5757 5753 5747 5741 5735 5728 5721 5716 5710 5704 5699 5694 5689 5684 5680 5678 5676 5675 5677 5678 5679 5680 5681 5684 5686 5687 5690 5692 5695 5697
5801 5798 5795 5792 5788 5785 5780 5776 5773 5768 5763 5759 5752 5747 5742 5736 5728 5720 5713 5706 5700 5695 5687 5681 5675 5671 5666 5661 5659 5655 5654 5654 5657 5659 5662 5664 5666 5669 5672 5675 5678 5681 5684
5793 5789 5786 5783 5779 5775 5771 5766 5760 5755 5752 5748 5743 5736 5729 5721 5715 5708 5701 5694 5686 5677 5671 5664 5658 5652 5645 5641 5637 5635 5635 5635 5635 5639 5642 5645 5649 5652 5655 5659 5662 5666 5669
5784 5781 5778 5774 5769 5764 5759 5755 5750 5745 5739 5733 5728 5723 5717 5710 5703 5697 5688 5680 5672 5664 5655 5647 5640 5634 5627 5622 5617 5614 5614 5615 5617 5618 5622 5627 5631 5635 5640 5643 5646 5651 5654
5775 5771 5767 5763 5759 5754 5750 5744 5738 5733 5727 5723 5717 5711 5705 5699 5691 5685 5677 5669 5660 5651 5642 5632 5624 5618 5613 5608 5604 5599 5598 5598 5600 5602 5605 5608 5613 5618 5623 5628 5632 5636 5640
5764 5761 5756 5752 5747 5743 5737 5732 5728 5723 5719 5713 5707 5702 5697 5690 5683 5675 5666 5658 5649 5638 5627 5619 5612 5607 5602 5598 5594 5589 5586 5585 5585 5587 5590 5592 5596 5601 5606 5611 5616 5621 5626
5752 5749 5746 5742 5738 5733 5728 5723 5719 5714 5708 5704 5700 5694 5688 5682 5675 5666 5657 5647 5638 5629 5618 5611 5605 5599 5594 5590 5586 5581 5578 5576 5575 5576 5578 5580 5582 5585 5590 5596 5600 5605 5610
5741 5738 5735 5732 5728 5723 5719 5715 5710 5705 5701 5697 5692 5687 5681 5674 5667 5658 5649 5639 5629 5620 5611 5604 5598 5593 5588 5582 5580 5577 5573 5570 5568 5567 5568 5569 5571 5574 5577 5581 5585 5590 5595
5731 5728 5725 5723 5719 5714 5710 5706 5702 5699 5696 5691 5686 5681 5675 5668 5660 5651 5642 5632 5623 5614 5605 5599 5593 5588 5584 5579 5576 5573 5570 5567 5564 5562 5560 5561 5562 5563 5566 5568 5571 5575 5580
5722 5719 5717 5713 5710 5707 5703 5700 5696 5693 5689 5685 5681 5675 5668 5660 5652 5644 5635 5627 5619 5610 5602 5594 5589 5586 5582 5577 5573 5571 5568 5565 5562 5560 5558 5556 5555 5555 5556 5558 5560 5563 5566
5714 5711 5708 5706 5704 5701 5698 5694 5691 5687 5684 5679 5674 5668 5662 5654 5646 5637 5629 5621 5614 5606 5599 5593 5587 5583 5579 5576 5572 5569 5566 5563 5560 5558 5555 5553 5551 5550 5550 5550 5551 5553 5555
Wind_Speed
18 18 21 23 21 19 15 12 12 14 15 17 17 18 19 20 20 19 19 18 18 18 18 17 18 19 19 19 22 24 27 21 23 30 35 34 35 38 31 30 26 25 25
21 22 23 28 18 20 16 16 15 15 17 19 20 20 22 23 24 23 24 24 23 22 20 21 21 21 22 22 22 22 24 27 24 30 25 28 36 33 36 34 35 21 21
24 22 19 17 15 17 18 18 19 18 19 20 20 21 22 23 27 27 27 27 28 28 27 26 26 24 23 21 22 23 24 24 25 25 32 34 38 35 31 34 32 23 22
24 23 22 20 15 16 18 18 18 20 20 22 24 23 23 25 28 29 30 31 31 29 27 27 29 30 31 28 26 24 24 25 25 23 26 31 33 37 37 35 32 25 27
26 26 23 22 22 24 25 23 22 24 24 26 25 24 24 27 28 31 33 33 33 34 34 32 31 31 31 31 31 31 30 28 27 28 26 25 29 33 35 32 28 34 32
25 27 29 25 26 27 26 25 24 22 23 26 28 28 31 34 35 36 35 34 35 34 33 34 34 34 33 33 33 33 33 32 32 31 31 29 29 28 30 31 29 30 32
31 30 31 31 30 27 25 25 26 27 28 30 33 36 38 41 40 39 39 38 38 36 32 31 32 34 34 31 33 36 37 37 36 35 32 34 30 30 25 30 31 39 39
36 35 35 33 31 28 27 29 29 31 32 34 36 39 40 41 40 37 37 37 35 37 38 39 38 36 32 31 32 33 36 41 40 38 37 35 34 33 30 27 30 38 31
42 43 41 34 33 25 30 32 33 35 36 36 37 40 41 37 33 32 36 39 39 41 43 44 43 40 37 36 34 33 35 39 42 42 40 39 36 37 36 33 31 30 31
32 19 30 28 28 30 33 32 34 34 37 37 36 38 36 34 34 36 38 40 41 42 44 45 46 43 38 36 37 38 35 38 40 44 42 41 41 38 38 37 34 31 31
30 29 24 22 25 26 30 30 33 34 34 34 34 36 37 38 40 43 45 46 45 46 48 47 45 43 42 40 38 38 38 37 39 41 42 42 41 40 39 39 38 34 33
27 28 27 29 30 29 29 29 30 32 34 37 38 40 43 45 45 48 50 51 51 48 47 46 47 46 45 43 42 39 39 41 38 40 42 41 42 41 40 40 38 38 36
27 30 32 31 33 33 33 33 35 37 38 39 42 45 47 48 49 50 51 50 48 47 46 45 46 47 46 44 45 44 42 40 40 41 40 41 42 43 42 40 38 40 39
26 27 27 29 31 33 33 34 37 39 42 44 45 47 49 50 48 46 46 47 49 50 52 53 54 54 52 51 47 45 46 45 42 43 43 42 41 45 44 41 40 39 38
24 25 27 28 30 32 33 36 40 44 46 47 46 46 45 45 48 50 50 52 53 55 57 59 60 62 62 62 60 56 50 48 47 46 46 44 43 42 44 44 41 41 39
26 28 30 32 33 34 37 39 43 44 44 43 44 45 48 50 53 55 56 58 58 57 56 56 55 54 55 57 60 60 60 55 51 49 47 48 46 45 44 44 46 45 43
32 32 31 32 36 38 41 43 42 40 39 41 45 47 49 51 51 52 53 55 55 54 55 52 51 50 50 51 52 50 51 55 54 53 50 48 48 46 46 45 43 43 43
31 31 34 37 38 40 41 39 39 41 43 44 45 48 48 46 48 49 49 51 53 54 54 52 52 52 54 54 53 52 50 48 50 52 53 51 49 46 46 45 45 44 43
32 34 36 38 39 38 37 39 41 42 43 44 46 44 44 46 45 46 49 50 52 54 58 58 54 53 51 44 44 46 47 47 46 46 51 51 50 48 46 45 44 42 43
35 38 39 40 37 37 39 40 40 39 39 40 40 39 40 42 45 47 50 52 53 54 53 55 52 44 34 33 37 35 37 41 43 43 41 46 49 49 48 45 44 43 43
41 39 41 38 37 38 39 38 36 37 38 37 36 36 38 41 45 48 51 51 52 53 54 46 36 30 34 33 30 31 30 31 35 36 38 40 42 46 47 47 45 43 43
44 42 37 36 37 36 35 34 36 36 34 31 32 35 38 41 45 48 50 50 52 48 45 39 31 29 30 27 27 29 24 25 26 30 34 35 38 40 44 46 47 47 46
45 39 36 36 35 34 33 34 33 31 28 29 32 35 38 43 47 49 49 47 49 46 37 31 27 25 28 27 23 24 22 22 22 24 23 26 32 36 38 40 44 46 47
32 32 33 34 34 31 31 30 28 27 27 29 33 36 41 46 47 48 46 42 44 46 39 29 25 23 24 24 18 18 17 17 17 17 19 26 26 28 31 35 38 41 44
34 32 31 31 29 28 27 28 29 28 29 31 34 39 42 44 45 44 41 39 39 40 35 29 23 22 19 17 17 17 16 16 16 16 16 17 19 24 29 30 33 35 38
29 30 26 25 25 25 28 27 28 28 29 31 36 38 38 40 41 42 38 37 37 38 32 28 20 18 15 15 17 16 16 17 16 17 18 19 21 19 19 21 24 27 30
Wind_Direction
315 312 298 292 280 276 281 297 306 307 312 315 319 320 319 319 321 324 327 331 335 336 339 334 329 320 319 313 287 281 291 303 267 253 259 267 269 273 243 247 243 233 252
326 326 311 303 277 271 280 288 291 298 304 306 307 310 312 315 312 316 316 317 319 321 323 326 326 324 319 320 318 305 295 285 287 255 256 266 273 279 277 259 282 210 246
325 330 335 321 300 266 278 285 290 296 297 302 303 305 305 308 306 308 309 311 311 311 314 317 316 316 314 314 309 306 306 297 288 283 277 272 274 278 285 266 259 252 261
324 326 333 329 315 289 282 288 298 300 299 297 296 300 296 296 292 297 302 304 303 303 304 305 306 308 308 309 306 300 294 296 298 292 289 281 276 272 267 270 270 259 253
329 321 321 318 312 300 295 295 296 297 298 298 301 302 299 301 305 306 303 302 304 305 304 303 300 297 296 299 297 297 298 293 290 286 289 285 283 283 275 261 258 254 265
313 316 315 312 305 304 299 295 297 298 297 300 304 303 304 308 312 311 308 307 305 302 299 297 296 293 291 288 287 287 288 286 284 282 283 283 285 286 290 267 255 262 262
304 300 300 301 304 300 293 293 294 298 303 307 308 309 309 310 312 312 312 311 309 309 306 303 300 297 296 291 284 281 281 279 275 275 274 278 278 277 278 280 269 262 263
289 289 291 295 298 296 297 296 300 304 307 309 309 308 308 311 313 316 314 312 314 313 312 310 309 306 304 296 289 278 273 272 273 272 269 267 271 271 269 268 272 274 265
281 288 284 284 285 297 302 304 308 307 307 307 309 308 308 311 311 312 309 308 311 311 308 307 307 308 305 299 294 285 276 272 270 270 267 265 262 264 267 266 262 267 274
292 259 272 309 264 265 298 301 300 302 303 305 306 306 306 308 307 306 303 306 308 307 304 304 304 304 300 294 288 287 284 276 272 272 269 265 262 260 260 263 261 263 264
323 327 312 311 307 299 296 299 302 303 305 305 304 304 305 304 306 305 305 303 304 305 303 304 304 298 293 292 290 285 283 281 276 273 271 265 263 262 258 258 259 260 260
300 303 305 307 305 302 302 303 303 303 304 305 307 307 306 305 305 302 301 302 303 302 302 302 301 299 296 292 287 282 280 280 278 275 271 268 265 264 260 259 258 258 257
304 299 301 304 306 306 306 305 304 304 305 304 305 304 304 304 303 303 303 302 302 301 301 298 296 295 293 290 288 285 279 274 273 272 273 268 262 261 260 258 253 257 258
295 296 297 299 297 296 296 300 303 303 304 304 305 305 305 303 303 301 300 301 301 301 300 298 296 294 291 288 284 281 279 275 271 269 269 268 266 260 258 255 254 252 253
292 296 295 293 292 296 301 305 305 305 305 303 302 301 300 301 300 299 298 296 296 294 292 291 289 287 286 285 283 281 275 272 269 266 265 266 263 262 258 255 253 253 252
302 300 300 301 302 302 302 302 304 303 301 301 301 302 303 303 303 303 303 301 299 297 296 295 293 292 291 288 283 279 276 272 267 264 262 262 261 258 257 255 255 255 254
304 302 300 301 300 302 304 303 302 300 300 302 303 304 304 305 305 304 304 304 303 302 300 298 297 295 291 289 284 283 278 270 266 262 259 258 258 257 256 254 254 253 255
301 300 300 299 302 302 301 301 302 305 305 305 305 307 308 307 307 307 308 308 308 308 307 304 302 297 293 290 284 278 273 276 265 258 258 255 254 253 253 253 252 251 251
300 299 299 302 304 304 302 303 306 307 308 310 311 308 306 308 311 312 312 313 313 311 309 307 306 301 300 295 291 281 271 265 268 260 252 252 252 252 250 250 251 251 251
297 300 303 303 302 302 303 307 310 311 310 309 309 311 313 315 316 317 318 318 316 315 313 312 308 304 300 296 304 293 278 267 263 263 255 249 248 249 250 249 248 248 250
302 304 302 302 303 305 309 311 308 307 308 311 313 316 318 321 323 323 323 322 324 323 320 317 309 303 307 312 307 304 289 274 263 261 259 251 247 246 246 248 248 247 246
303 301 298 299 304 307 309 307 306 309 312 313 318 322 324 326 329 329 329 326 326 327 319 318 315 312 312 308 315 312 310 290 277 264 260 258 252 246 245 245 247 247 247
294 291 294 303 305 309 307 307 309 312 313 316 322 323 323 325 327 330 329 327 327 327 326 322 322 321 324 315 309 318 313 307 290 272 269 261 258 255 250 247 246 246 248
290 301 307 304 308 306 307 309 312 311 308 316 321 323 322 324 327 329 329 327 329 330 330 327 323 332 330 328 312 318 326 319 306 303 286 265 261 259 258 253 250 247 246
306 302 303 306 303 306 307 309 311 308 308 315 321 323 324 325 328 329 331 330 329 330 330 334 331 332 331 344 331 317 323 329 330 329 316 296 275 265 259 256 254 250 245
299 302 302 302 303 303 307 309 311 309 311 318 323 323 325 328 331 334 334 332 334 334 333 334 323 332 340 350 348 338 332 329 328 319 312 305 299 289 273 265 261 256 252